This is the latest recevied weather packets stored in our database for station/object RA1AMO-10. If no packets are shown the sender has not sent any weather packets the latest 10 day(s).
| Time | Temp. | Humidity | Pressure | Rain* | Wind** | Luminosity | Snow |
|---|---|---|---|---|---|---|---|
| 1777897099 | 18.89° C | 44% | 999.7 hPa | - | - | - | - |
| 1777896196 | 19.44° C | 39% | 999.9 hPa | - | - | - | - |
| 1777893496 | 20° C | 39% | 1000.7 hPa | - | - | - | - |
| 1777892596 | 19.44° C | 39% | 1001.2 hPa | - | - | - | - |
| 1777891696 | 18.89° C | 40% | 1001.4 hPa | - | - | - | - |
| 1777889895 | 18.89° C | 40% | 1001.7 hPa | - | - | - | - |
| 1777887195 | 18.33° C | 40% | 1002 hPa | - | - | - | - |
| 1777886295 | 17.78° C | 41% | 1002.2 hPa | - | - | - | - |
| 1777885394 | 17.78° C | 41% | 1002.3 hPa | - | - | - | - |
| 1777883594 | 17.22° C | 42% | 1002.4 hPa | - | - | - | - |
| 1777882694 | 16.67° C | 42% | 1002.5 hPa | - | - | - | - |
| 1777881794 | 16.67° C | 43% | 1002.7 hPa | - | - | - | - |
| 1777879993 | 15.56° C | 45% | 1002.9 hPa | - | - | - | - |
| 1777879093 | 15.56° C | 45% | 1003 hPa | - | - | - | - |
| 1777878193 | 15.56° C | 46% | 1003.3 hPa | - | - | - | - |
| 1777877293 | 15.56° C | 46% | 1003.4 hPa | - | - | - | - |
| 1777876393 | 15° C | 48% | 1003.5 hPa | - | - | - | - |
| 1777875493 | 14.44° C | 49% | 1003.6 hPa | - | - | - | - |
| 1777874592 | 13.89° C | 51% | 1003.8 hPa | - | - | - | - |
| 1777873692 | 13.89° C | 52% | 1003.8 hPa | - | - | - | - |
| 1777872792 | 13.33° C | 53% | 1003.9 hPa | - | - | - | - |
| 1777871892 | 13.33° C | 54% | 1004 hPa | - | - | - | - |
| 1777870992 | 12.78° C | 55% | 1004.2 hPa | - | - | - | - |
| 1777870091 | 12.78° C | 56% | 1004.2 hPa | - | - | - | - |
| 1777869191 | 12.22° C | 57% | 1004.4 hPa | - | - | - | - |
* Rain since midnight (hover to see other rain measurements)
** Current wind speed in m/s (hover to see current wind gust speed)